SCP
0 0 0 0 0 0 0 0 0 0 0 0 0 0 0 0 0 0 0 0 0 0
0 0 0 0 0 0 0 0 0 0 0 0 0 0 0 0 0 0 0 0 0 0
0 0 0 0 0 0 0 0 0 0 0 0 0 0 0 0 0 0 0 0 0 0
0 0 0 0 0 0 0 0 0 0 0 0 0 0 0 0 0 0 0 0 0 0
0 0 0 0 0 0 0 0 0 0 0 0 0 0 0 0 0 0 0 0 0 0
0 0 0 0 0 0 0 0 0 0 0 0 0 0 0 0 0 0 0 0 0 0
0 0 0 0 0 0 0 0 0 0 0 0 0 0 0 0 0 0 0 0 0 0
0 0 0 0 0 0 0 0 0 0 0 0 0 0 0 0 0 0 0 0 0 0
0 0 0 0 0 0 0 0 0 0 0 0 0 0 0 0 0 0 0 0 0 0
0 0 0 0 0 0 0 0 0 0 0 0 0 0 0 0 0 0 0 0 0 0
0 0 0 0 0 0 0 0 0 0 0 0 0 0 0 0 0 0 0 0 0 0
0 0 0 0 0 0 0 0 0 0 0 0 0 0 0 0 0 0 0 0 0 0
0 0 0 0 0 0 0 0 0 0 0 0 0 0 0 0 0 0 0 0 0 0
0 0 0 0 0 0 0 0 0 0 0 0 0 0 0 0 0 0 0 0 0 0
Wind_Speed_500mb
72 73 72 72 70 66 64 57 50 44 45 43 47 57 58 61 62 57 53 53 52 52
71 72 74 73 73 65 62 56 48 45 45 45 44 41 44 50 50 50 49 50 50 51
64 64 67 66 64 61 61 55 54 50 48 48 45 43 46 47 48 46 48 50 53 55
52 58 61 62 61 58 58 58 56 53 51 50 46 45 44 44 42 41 45 49 52 56
31 38 45 50 52 53 54 52 54 52 51 50 50 49 44 41 39 41 45 48 51 53
19 23 29 33 37 42 48 53 57 56 56 55 54 48 42 38 38 38 40 43 46 48
22 25 28 33 40 48 54 59 59 58 58 55 50 44 38 33 31 33 37 40 43 45
27 31 36 41 46 52 55 57 57 56 56 52 46 38 32 29 30 31 35 39 42 44
34 39 41 43 46 49 51 54 56 57 54 49 43 38 33 32 30 30 33 38 42 44
42 45 46 49 51 52 55 58 61 60 57 52 47 42 39 36 31 31 33 37 41 42
50 49 50 55 58 59 62 64 66 64 60 56 51 47 43 38 35 33 35 38 40 42
53 51 50 57 59 62 65 68 68 67 64 60 54 50 46 43 38 37 38 39 40 40
50 53 52 52 55 60 64 68 69 69 67 63 58 55 52 47 42 40 39 38 38 40
51 53 54 55 56 57 63 67 72 73 70 66 61 56 54 51 44 41 38 37 37 38
Wind_Direction_500mb
247 249 252 254 258 260 259 264 263 258 251 248 246 245 244 246 251 252 253 257 260 264
244 246 250 253 256 254 250 257 259 253 243 239 249 238 236 238 243 247 250 252 255 258
240 241 245 249 252 249 248 248 251 244 243 247 247 241 240 242 244 248 254 260 265 266
237 238 241 244 248 247 244 248 244 242 247 244 247 247 247 243 249 255 261 267 271 273
244 241 241 242 242 239 240 241 238 246 246 246 245 245 245 247 253 262 267 271 273 273
253 248 242 238 236 233 225 229 241 244 244 244 241 240 240 246 255 264 271 275 277 277
264 256 246 240 237 236 238 240 243 243 240 233 231 233 240 252 266 275 278 279 278 276
256 252 249 244 239 238 239 240 239 232 227 226 228 234 246 259 268 276 282 285 282 278
265 258 252 246 242 239 235 231 227 226 225 227 231 237 245 256 265 276 285 287 285 279
274 267 260 254 247 241 236 233 231 229 228 230 233 239 247 258 270 279 285 285 282 279
273 269 264 258 252 246 242 240 236 233 232 232 235 241 249 259 268 275 282 284 283 279
274 276 272 265 260 254 249 245 241 238 236 237 239 244 252 260 269 278 282 282 281 280
275 272 268 269 264 260 256 252 248 244 243 242 242 246 253 261 268 274 278 280 282 285
274 268 266 265 261 258 254 251 247 244 241 241 242 245 251 258 264 269 273 276 276 274
Wind_Speed_850mb
72 73 72 72 70 66 64 57 50 44 45 43 47 57 58 61 62 57 53 53 52 52
71 72 74 73 73 65 62 56 48 45 45 45 44 41 44 50 50 50 49 50 50 51
64 64 67 66 64 61 61 55 54 50 48 48 45 43 46 47 48 46 48 50 53 55
52 58 61 62 61 58 58 58 56 53 51 50 46 45 44 44 42 41 45 49 52 56
31 38 45 50 52 53 54 52 54 52 51 50 50 49 44 41 39 41 45 48 51 53
19 23 29 33 37 42 48 53 57 56 56 55 54 48 42 38 38 38 40 43 46 48
22 25 28 33 40 48 54 59 59 58 58 55 50 44 38 33 31 33 37 40 43 45
27 31 36 41 46 52 55 57 57 56 56 52 46 38 32 29 30 31 35 39 42 44
34 39 41 43 46 49 51 54 56 57 54 49 43 38 33 32 30 30 33 38 42 44
42 45 46 49 51 52 55 58 61 60 57 52 47 42 39 36 31 31 33 37 41 42
50 49 50 55 58 59 62 64 66 64 60 56 51 47 43 38 35 33 35 38 40 42
53 51 50 57 59 62 65 68 68 67 64 60 54 50 46 43 38 37 38 39 40 40
50 53 52 52 55 60 64 68 69 69 67 63 58 55 52 47 42 40 39 38 38 40
51 53 54 55 56 57 63 67 72 73 70 66 61 56 54 51 44 41 38 37 37 38
Wind_Direction_850mb
247 249 252 254 258 260 259 264 263 258 251 248 246 245 244 246 251 252 253 257 260 264
244 246 250 253 256 254 250 257 259 253 243 239 249 238 236 238 243 247 250 252 255 258
240 241 245 249 252 249 248 248 251 244 243 247 247 241 240 242 244 248 254 260 265 266
237 238 241 244 248 247 244 248 244 242 247 244 247 247 247 243 249 255 261 267 271 273
244 241 241 242 242 239 240 241 238 246 246 246 245 245 245 247 253 262 267 271 273 273
253 248 242 238 236 233 225 229 241 244 244 244 241 240 240 246 255 264 271 275 277 277
264 256 246 240 237 236 238 240 243 243 240 233 231 233 240 252 266 275 278 279 278 276
256 252 249 244 239 238 239 240 239 232 227 226 228 234 246 259 268 276 282 285 282 278
265 258 252 246 242 239 235 231 227 226 225 227 231 237 245 256 265 276 285 287 285 279
274 267 260 254 247 241 236 233 231 229 228 230 233 239 247 258 270 279 285 285 282 279
273 269 264 258 252 246 242 240 236 233 232 232 235 241 249 259 268 275 282 284 283 279
274 276 272 265 260 254 249 245 241 238 236 237 239 244 252 260 269 278 282 282 281 280
275 272 268 269 264 260 256 252 248 244 243 242 242 246 253 261 268 274 278 280 282 285
274 268 266 265 261 258 254 251 247 244 241 241 242 245 251 258 264 269 273 276 276 274